This is the latest recevied weather packets stored in our database for station/object OE3MHU-13. If no packets are shown the sender has not sent any weather packets the latest 10 day(s).
| Time | Temp. | Humidity | Pressure | Rain* | Wind** | Luminosity | Snow |
|---|---|---|---|---|---|---|---|
| 1777369348 | 17.22° C | 40% | 1022.4 hPa | 0 mm | - | - | - |
| 1777369041 | 17.22° C | 39% | 1022.5 hPa | 0 mm | - | - | - |
| 1777368735 | 17.22° C | 40% | 1022.5 hPa | 0 mm | - | - | - |
| 1777368430 | 17.22° C | 41% | 1022.5 hPa | 0 mm | - | - | - |
| 1777368123 | 17.22° C | 42% | 1022.6 hPa | 0 mm | - | - | - |
| 1777367824 | 16.67° C | 43% | 1022.7 hPa | 0 mm | - | - | - |
| 1777367524 | 16.11° C | 41% | 1022.7 hPa | 0 mm | - | - | - |
| 1777367225 | 16.67° C | 42% | 1022.7 hPa | 0 mm | - | - | - |
| 1777366923 | 17.22° C | 40% | 1022.8 hPa | 0 mm | - | - | - |
| 1777366623 | 17.22° C | 41% | 1022.7 hPa | 0 mm | - | - | - |
| 1777366323 | 16.67° C | 42% | 1022.7 hPa | 0 mm | - | - | - |
| 1777366024 | 16.67° C | 43% | 1022.6 hPa | 0 mm | - | - | - |
| 1777365724 | 16.67° C | 43% | 1022.6 hPa | 0 mm | - | - | - |
| 1777365423 | 16.67° C | 46% | 1022.6 hPa | 0 mm | - | - | - |
| 1777365124 | 16.11° C | 45% | 1022.7 hPa | 0 mm | - | - | - |
| 1777364827 | 16.11° C | 45% | 1022.7 hPa | 0 mm | - | - | - |
| 1777364523 | 16.11° C | 45% | 1022.7 hPa | 0 mm | - | - | - |
| 1777364223 | 16.11° C | 46% | 1022.7 hPa | 0 mm | - | - | - |
| 1777363923 | 16.11° C | 46% | 1022.7 hPa | 0 mm | - | - | - |
| 1777363624 | 15.56° C | 47% | 1022.8 hPa | 0 mm | - | - | - |
| 1777363324 | 15.56° C | 47% | 1022.6 hPa | 0 mm | - | - | - |
| 1777363021 | 14.44° C | 51% | 1022.6 hPa | 0 mm | - | - | - |
| 1777362713 | 14.44° C | 51% | 1022.6 hPa | 0 mm | - | - | - |
| 1777362406 | 13.89° C | 53% | 1022.6 hPa | 0 mm | - | - | - |
| 1777362101 | 13.89° C | 53% | 1022.6 hPa | 0 mm | - | - | - |
* Rain latest hour (hover to see other rain measurements)
** Current wind speed in m/s (hover to see current wind gust speed)